Location: Riverton
(43.0250°N, 108.3790°W)
Time: 17:08:18
(UTC-07:00)

Amateur Radio Satellites - All Passes

Search period start: 26 November 2014 16:38
Search period end: 27 November 2014 16:38
Location: Riverton, 43.0250°N, 108.3790°W

Satellite Date Start Highest point End Downlink Frequencies (MHz)
Time Altitude Azimuth
PHONESAT 2.4 26 Nov 16:53:26 16:57:06 59° 178° (S) 17:00:46 2401.200-2431.200
CUTE-I 26 Nov 16:55:08 16:59:59 36° 67° (ENE) 17:04:49 437.470
O/OREOS (USA 219) 26 Nov 16:57:04 17:00:02 18° 260° (W) 17:02:59 437.305
VERMONT LUNAR 26 Nov 17:01:54 17:05:28 57° 184° (S) 17:09:03 437.305
GONETS M04 26 Nov 17:03:23 17:05:53 11° 52° (NE) 17:08:22
AO-7 26 Nov 17:10:09 17:16:27 24° 268° (W) 17:22:50 29.400- 29.500
PRISM 26 Nov 17:27:58 17:30:51 18° 93° (E) 17:33:43 437.425
Cubesat XI-IV 26 Nov 17:53:16 17:58:37 71° 257° (WSW) 18:04:00 437.490
MOZHAYETS 4 26 Nov 18:06:48 18:11:01 34° 291° (WNW) 18:15:11
JAS-2 26 Nov 18:07:08 18:13:21 27° 270° (W) 18:19:45 435.910
CUBESAT XI-V 26 Nov 18:13:24 18:17:05 23° 93° (E) 18:20:44 437.345
PHONESAT 2.4 26 Nov 18:32:10 18:35:41 40° 195° (SSW) 18:39:11 2401.200-2431.200
PCSat 26 Nov 18:34:17 18:38:16 21° 106° (ESE) 18:42:15 145.827
AIST 1 26 Nov 18:34:37 18:36:59 14° 84° (E) 18:39:22
CUTE-I 26 Nov 18:35:20 18:40:03 31° 264° (W) 18:44:47 437.470
RS-15 26 Nov 18:37:42 18:47:33 37° 327° (NNW) 18:57:34 29.354- 29.394
VERMONT LUNAR 26 Nov 18:40:26 18:43:40 30° 200° (SSW) 18:46:53 437.305
HO-68 26 Nov 18:47:06 18:52:41 25° 57° (ENE) 18:58:17 435.675
GONETS M04 26 Nov 18:56:26 19:05:06 56° 76° (ENE) 19:13:40
STRAND 1 26 Nov 19:01:04 19:06:08 62° 102° (ESE) 19:11:10 437.568
PRISM 26 Nov 19:02:35 19:06:36 41° 289° (WNW) 19:10:34 437.425
CUTE 1.7 + AOD 2 26 Nov 19:17:20 19:20:06 17° 65° (ENE) 19:22:54 437.475
GOMX 1 26 Nov 19:29:58 19:33:11 19° 66° (ENE) 19:36:17 467.674
UKube-1 26 Nov 19:47:28 19:49:19 13° 60° (ENE) 19:51:10 .
SEEDS 26 Nov 19:48:14 19:51:55 31° 69° (ENE) 19:55:38 437.485
CUBESAT XI-V 26 Nov 19:50:20 19:54:39 38° 290° (WNW) 19:58:55 437.345
Oscar 11 26 Nov 19:57:06 19:59:49 17° 64° (ENE) 20:02:32 145.826/435.025
BEESAT 3 26 Nov 19:58:22 20:02:23 58° 120° (ESE) 20:06:30 437.485
BRITE-PL 26 Nov 20:01:00 20:05:49 52° 73° (ENE) 20:10:16 437.365/2234.400
AAUSAT CUBESAT 2 26 Nov 20:03:18 20:07:03 34° 70° (ENE) 20:10:50 437.432
DELFI C3 26 Nov 20:05:45 20:08:15 16° 64° (ENE) 20:10:47 145.870
AIST 1 26 Nov 20:09:53 20:14:10 51° 282° (WNW) 20:18:30
PHONESAT 2.4 26 Nov 20:11:53 20:13:55 14° 211° (SSW) 20:15:56 2401.200-2431.200
BEESAT 2 26 Nov 20:14:24 20:18:31 78° 122° (ESE) 20:22:43 435.950
PCSat 26 Nov 20:15:54 20:21:13 58° 304° (NW) 20:26:36 145.827
CANX-2 26 Nov 20:16:52 20:21:04 82° 76° (ENE) 20:25:20 2200.000
COMPASS 1 26 Nov 20:18:49 20:22:53 57° 74° (ENE) 20:27:01 437.405
UWE-3 26 Nov 20:19:30 20:21:45 14° 63° (ENE) 20:23:59 435.000/436.395/437.385
CUBEBUG 2 26 Nov 20:20:32 20:23:15 17° 65° (ENE) 20:25:56 437.445
DOVE 4 26 Nov 20:20:39 20:24:58 43° 72° (ENE) 20:29:05 437.250
DX 1 26 Nov 20:21:40 20:25:24 28° 67° (ENE) 20:29:09 434.975-435.025
HO-68 26 Nov 20:32:35 20:39:45 71° 256° (WSW) 20:46:58 435.675
STRAND 1 26 Nov 20:41:26 20:44:50 18° 299° (WNW) 20:48:13 437.568
CINEMA 3 26 Nov 20:50:13 20:54:28 54° 73° (ENE) 20:58:36 145.822/145.860
ZACube-1 26 Nov 20:51:13 20:54:42 26° 68° (ENE) 20:58:09 437.345
CUTE 1.7 + AOD 2 26 Nov 20:51:40 20:55:42 44° 261° (W) 20:59:46 437.475
AIST 2 26 Nov 20:52:33 20:56:47 87° 304° (NW) 21:01:07 435.215
GONETS M04 26 Nov 20:53:54 21:01:29 34° 276° (W) 21:09:01
VELOX 1 26 Nov 20:55:45 20:59:06 21° 65° (ENE) 21:02:28 145.980
RS-15 26 Nov 20:56:01 21:04:19 23° 1° (N) 21:12:46 29.354- 29.394
GOMX 1 26 Nov 21:06:28 21:11:03 47° 261° (W) 21:15:22 467.674
UKube-1 26 Nov 21:20:34 21:24:54 71° 257° (WSW) 21:29:16 .
AISAT 26 Nov 21:21:37 21:25:46 38° 70° (ENE) 21:29:55 437.250
SEEDS 26 Nov 21:24:27 21:27:47 23° 266° (W) 21:31:10 437.485
FUNcube-1 26 Nov 21:25:15 21:29:23 60° 74° (ENE) 21:33:29 145.935
Oscar 11 26 Nov 21:31:26 21:35:36 49° 261° (W) 21:39:48 145.826/435.025
CUBEBUG 1 26 Nov 21:32:23 21:35:28 19° 64° (ENE) 21:38:34 437.445
BEESAT 3 26 Nov 21:38:01 21:40:59 19° 319° (NW) 21:43:58 437.485
TIGRISAT 26 Nov 21:38:14 21:38:29 10° 89° (E) 21:38:44 435.000
DELFI C3 26 Nov 21:39:18 21:43:12 45° 261° (W) 21:47:09 145.870
AAUSAT CUBESAT 2 26 Nov 21:39:40 21:42:49 21° 267° (W) 21:46:00 437.432
BRITE-PL 26 Nov 21:41:17 21:44:32 17° 267° (W) 21:47:40 437.365/2234.400
50 SAT 26 Nov 21:45:40 21:49:34 50° 73° (ENE) 21:53:29 437.505
UNISAT 6 26 Nov 21:50:18 21:52:52 15° 91° (E) 21:55:26 437.425
UWE-3 26 Nov 21:53:45 21:57:54 54° 260° (W) 22:02:00 435.000/436.395/437.385
BEESAT 2 26 Nov 21:54:48 21:57:21 16° 321° (NW) 21:59:55 435.950
CUBEBUG 2 26 Nov 21:55:34 21:59:39 45° 261° (W) 22:03:40 437.445
COMPASS 1 26 Nov 21:57:12 21:59:00 13° 270° (W) 22:00:49 437.405
DX 1 26 Nov 21:57:48 22:01:35 28° 264° (W) 22:05:23 434.975-435.025
DOVE 4 26 Nov 21:59:48 22:02:55 18° 267° (W) 22:05:57 437.250
HUMSAT D 26 Nov 22:02:51 22:06:59 84° 257° (WSW) 22:11:08 437.325/437.525
PCSat 26 Nov 22:03:25 22:05:51 13° 326° (NW) 22:08:17 145.827
ISS 26 Nov 22:15:56 22:17:52 15° 132° (SE) 22:19:49 145.825
CUSAT 1 26 Nov 22:17:28 22:19:41 13° 70° (ENE) 22:22:09 437.405
ANTELSAT 26 Nov 22:18:06 22:22:00 29° 96° (E) 22:25:58 437.575/2403.000
POLYITAN 1 26 Nov 22:25:34 22:28:57 23° 94° (E) 22:32:19 437.675
HO-68 26 Nov 22:26:20 22:28:40 12° 274° (W) 22:31:00 435.675
QB50P2 26 Nov 22:27:10 22:30:36 24° 95° (E) 22:34:02 145.880/145.840
ZACube-1 26 Nov 22:27:25 22:31:01 27° 264° (W) 22:34:36 437.345
CINEMA 3 26 Nov 22:29:48 22:32:00 14° 269° (W) 22:34:11 145.822/145.860
VELOX 1 26 Nov 22:31:14 22:35:27 40° 262° (W) 22:39:40 145.980
DUCHIFAT 1 26 Nov 22:32:29 22:36:03 26° 96° (E) 22:39:37 145.980
ESTCUBE 1 26 Nov 22:32:44 22:37:17 80° 75° (ENE) 22:41:52 437.505/2401.250
AIST 2 26 Nov 22:33:46 22:36:06 14° 323° (NW) 22:38:27 435.215
TISAT 1 26 Nov 22:39:20 22:42:45 24° 67° (ENE) 22:46:11 437.305
DANDE 26 Nov 22:46:24 22:49:45 19° 74° (ENE) 22:53:48 436.750
NANOSAT C BR1 26 Nov 22:51:44 22:55:46 43° 99° (E) 22:59:47 145.865
SPROUT 26 Nov 22:51:51 22:55:32 28° 68° (ENE) 22:59:13 437.525
AISAT 26 Nov 22:59:07 23:02:32 21° 266° (W) 23:05:57 437.250
QB50P1 26 Nov 23:01:41 23:05:51 57° 101° (E) 23:10:00 145.935-145.965
FUNcube-1 26 Nov 23:04:36 23:06:08 12° 270° (W) 23:07:40 145.935
CUBEBUG 1 26 Nov 23:07:15 23:11:31 45° 261° (W) 23:15:48 437.445
BUGSAT 1 26 Nov 23:07:21 23:11:22 53° 100° (E) 23:15:19 437.445
RS-15 26 Nov 23:10:47 23:20:59 39° 35° (NE) 23:31:31 29.354- 29.394
TIGRISAT 26 Nov 23:11:18 23:15:45 79° 285° (WNW) 23:20:16 435.000
50 SAT 26 Nov 23:23:16 23:25:11 13° 269° (W) 23:27:07 437.505
UNISAT 6 26 Nov 23:25:37 23:29:58 55° 287° (WNW) 23:34:24 437.425
POPSAT HIP 1 26 Nov 23:26:37 23:30:50 76° 285° (WNW) 23:35:02 437.405
MaSat-1 26 Nov 23:40:02 23:41:37 16° 56° (ENE) 23:43:12 437.345
ISS 26 Nov 23:50:52 23:54:09 71° 329° (NNW) 23:57:26 145.825
ITUPSAT 1 26 Nov 23:52:59 23:56:50 25° 65° (ENE) 00:00:42 437.325
ANTELSAT 26 Nov 23:54:56 23:58:45 28° 292° (WNW) 00:02:37 437.575/2403.000
CUSAT 1 26 Nov 23:58:13 00:02:55 81° 261° (W) 00:09:18 437.405
POLYITAN 1 27 Nov 00:01:11 00:04:57 32° 291° (WNW) 00:08:41 437.675
QB50P2 27 Nov 00:02:50 00:06:33 30° 291° (WNW) 00:10:15 145.880/145.840
SWISSCUBE 27 Nov 00:03:01 00:07:17 33° 68° (ENE) 00:11:34 437.505
AUBIESAT-1 27 Nov 00:07:33 00:11:35 57° 67° (ENE) 00:16:01 437.475
DUCHIFAT 1 27 Nov 00:08:19 00:11:53 27° 292° (WNW) 00:15:27 145.980
M-CUBED/EXP-1 PRIME 27 Nov 00:13:28 00:17:33 73° 69° (ENE) 00:22:03 437.505
ESTCUBE 1 27 Nov 00:14:06 00:14:43 10° 272° (W) 00:15:21 437.505/2401.250
TISAT 1 27 Nov 00:14:38 00:18:27 32° 263° (W) 00:22:17 437.305
SPROUT 27 Nov 00:27:53 00:31:34 27° 265° (W) 00:35:16 437.525
NANOSAT C BR1 27 Nov 00:28:31 00:31:20 18° 296° (WNW) 00:34:10 145.865
DANDE 27 Nov 00:28:47 00:33:13 50° 262° (W) 00:39:09 436.750
BEESAT 27 Nov 00:33:20 00:38:02 59° 72° (ENE) 00:42:46 436.000
QB50P1 27 Nov 00:39:03 00:41:18 14° 297° (WNW) 00:43:32 145.935-145.965
BUGSAT 1 27 Nov 00:44:17 00:46:26 14° 297° (WNW) 00:48:34 437.445
KKS-1 27 Nov 00:45:01 00:47:53 17° 63° (ENE) 00:50:46 437.445
Oscar 19 27 Nov 00:47:07 00:50:51 20° 92° (E) 00:54:34 437.125/150
MaSat-1 27 Nov 01:15:01 01:15:57 12° 251° (WSW) 01:16:53 437.345
RS-15 27 Nov 01:23:17 01:34:30 79° 241° (WSW) 01:46:13 29.354- 29.394
ISS 27 Nov 01:28:36 01:31:13 21° 348° (NNW) 01:33:50 145.825
ITUPSAT 1 27 Nov 01:30:00 01:34:30 39° 262° (W) 01:39:03 437.325
STARS 27 Nov 01:37:06 01:41:10 38° 70° (ENE) 01:45:14 437.465
SWISSCUBE 27 Nov 01:41:00 01:45:08 28° 264° (W) 01:49:18 437.505
ITAMSAT 1 27 Nov 01:42:15 01:46:28 25° 94° (E) 01:50:39 435.822/435.867
AUBIESAT-1 27 Nov 01:44:51 01:47:03 14° 266° (W) 01:49:22 437.475
M-CUBED/EXP-1 PRIME 27 Nov 01:52:11 01:53:15 11° 268° (W) 01:54:20 437.505
YUBILEINY 27 Nov 02:07:54 02:16:24 56° 90° (E) 02:24:52 435.215
BEESAT 27 Nov 02:13:26 02:16:16 16° 269° (W) 02:19:07 436.000
KKS-1 27 Nov 02:19:48 02:24:09 51° 260° (W) 02:28:30 437.445
Gurwin Techsat 1B 27 Nov 02:20:26 02:25:13 33° 96° (E) 02:29:58 435.225
Oscar 19 27 Nov 02:25:28 02:30:30 53° 289° (WNW) 02:35:30 437.125/150
SO-50 27 Nov 02:42:25 02:45:54 22° 112° (ESE) 02:49:29 436.795
BEESAT 2 27 Nov 02:57:36 02:59:01 11° 34° (NE) 03:00:25 435.950
ISS 27 Nov 03:06:13 03:08:42 19° 8° (N) 03:11:10 145.825
STARS 27 Nov 03:14:28 03:17:47 21° 266° (W) 03:21:06 437.465
AO-7 27 Nov 03:16:15 03:22:36 23° 92° (E) 03:28:53 29.400- 29.500
PCSat 27 Nov 03:20:02 03:24:28 25° 45° (NE) 03:28:53 145.827
ITAMSAT 1 27 Nov 03:21:14 03:26:06 42° 291° (WNW) 03:30:56 435.822/435.867
HORYU 2 27 Nov 03:27:44 03:32:13 65° 102° (ESE) 03:36:41 437.375
MOZHAYETS 4 27 Nov 03:33:02 03:36:53 27° 67° (ENE) 03:40:47
AIST 2 27 Nov 03:36:37 03:38:52 14° 36° (NE) 03:41:06 435.215
RS-15 27 Nov 03:37:58 03:45:04 19° 261° (W) 03:52:22 29.354- 29.394
Gurwin Techsat 1B 27 Nov 04:00:26 04:05:08 33° 293° (WNW) 04:09:50 435.225
YUBILEINY 27 Nov 04:05:46 04:13:34 34° 291° (WNW) 04:21:23 435.215
BEESAT 3 27 Nov 04:17:32 04:21:38 49° 52° (NE) 04:25:41 437.485
PRISM 27 Nov 04:20:25 04:23:04 16° 63° (ENE) 04:25:44 437.425
SO-50 27 Nov 04:21:47 04:26:09 45° 310° (NW) 04:30:40 436.795
BEESAT 2 27 Nov 04:33:56 04:38:09 65° 54° (NE) 04:42:17 435.950
STRAND 1 27 Nov 04:41:57 04:44:30 14° 58° (ENE) 04:47:03 437.568
ISS 27 Nov 04:42:41 04:45:54 49° 28° (NNE) 04:49:07 145.825
PCSat 27 Nov 05:02:56 05:08:16 59° 245° (WSW) 05:13:34 145.827
HORYU 2 27 Nov 05:05:59 05:08:22 14° 299° (WNW) 05:10:46 437.375
AO-7 27 Nov 05:07:47 05:16:10 79° 291° (WNW) 05:24:31 29.400- 29.500
MOZHAYETS 4 27 Nov 05:09:55 05:14:01 32° 264° (W) 05:18:09
CUTE-I 27 Nov 05:13:13 05:15:20 12° 88° (E) 05:17:26 437.470
AIST 2 27 Nov 05:13:52 05:18:12 82° 56° (NE) 05:22:28 435.215
JAS-2 27 Nov 05:15:08 05:22:05 57° 99° (E) 05:28:11 435.910
CUBESAT XI-V 27 Nov 05:17:54 05:21:48 26° 67° (ENE) 05:25:41 437.345
O/OREOS (USA 219) 27 Nov 05:29:49 05:34:05 45° 107° (ESE) 05:38:22 437.305
PRISM 27 Nov 05:54:10 05:58:14 48° 260° (W) 06:02:22 437.425
BEESAT 3 27 Nov 05:56:43 05:59:29 17° 249° (WSW) 06:02:14 437.485
SO-50 27 Nov 06:07:02 06:07:56 11° 332° (NNW) 06:08:50 436.795
Cubesat XI-IV 27 Nov 06:09:50 06:14:54 43° 99° (E) 06:19:55 437.490
GONETS M04 27 Nov 06:10:06 06:11:53 11° 71° (ENE) 06:13:40
BEESAT 2 27 Nov 06:13:56 06:15:54 13° 251° (WSW) 06:17:51 435.950
AIST 1 27 Nov 06:16:22 06:20:32 41° 77° (ENE) 06:24:38
STRAND 1 27 Nov 06:17:49 06:22:59 85° 256° (WSW) 06:28:10 437.568
ISS 27 Nov 06:19:42 06:22:21 23° 225° (SW) 06:25:01 145.825
CUTE-I 27 Nov 06:50:43 06:56:04 84° 286° (WNW) 07:01:22 437.470
CUBESAT XI-V 27 Nov 06:54:45 06:59:04 35° 263° (W) 07:03:25 437.345
AIST 2 27 Nov 06:55:24 06:56:09 10° 253° (WSW) 06:56:55 435.215
JAS-2 27 Nov 07:00:46 07:06:37 29° 300° (WNW) 07:11:57 435.910
AO-7 27 Nov 07:02:08 07:07:41 20° 312° (NW) 07:13:15 29.400- 29.500
O/OREOS (USA 219) 27 Nov 07:10:23 07:13:43 20° 306° (NW) 07:17:04 437.305
Cubesat XI-IV 27 Nov 07:50:23 07:54:46 27° 296° (WNW) 07:59:08 437.490
AIST 1 27 Nov 07:54:58 07:57:50 17° 274° (W) 08:00:41
GONETS M04 27 Nov 07:58:07 08:06:42 62° 91° (E) 08:15:23
HO-68 27 Nov 08:00:25 08:05:39 21° 91° (E) 08:10:51 435.675
CANX-2 27 Nov 08:03:14 08:05:24 14° 90° (E) 08:07:34 2200.000
BRITE-PL 27 Nov 08:06:41 08:08:22 12° 90° (E) 08:10:04 437.365/2234.400
CUTE-I 27 Nov 08:33:05 08:35:18 13° 303° (WNW) 08:37:31 437.470
CUTE 1.7 + AOD 2 27 Nov 08:36:26 08:40:10 28° 96° (E) 08:43:54 437.475
TIGRISAT 27 Nov 08:38:34 08:39:28 11° 60° (ENE) 08:40:22 435.000
CINEMA 3 27 Nov 08:46:25 08:47:40 11° 90° (E) 08:48:55 145.822/145.860
UNISAT 6 27 Nov 08:51:20 08:53:46 15° 63° (ENE) 08:56:13 437.425
GOMX 1 27 Nov 09:07:11 09:11:09 41° 99° (E) 09:15:11 467.674
SEEDS 27 Nov 09:07:19 09:11:31 54° 100° (E) 09:15:42 437.485
UKube-1 27 Nov 09:08:41 09:11:38 18° 93° (E) 09:14:34 .
FUNcube-1 27 Nov 09:15:41 09:16:31 11° 89° (E) 09:17:22 145.935
Oscar 11 27 Nov 09:18:15 09:21:58 27° 95° (E) 09:25:40 145.826/435.025
ANTELSAT 27 Nov 09:18:50 09:22:29 28° 68° (ENE) 09:26:09 437.575/2403.000
DELFI C3 27 Nov 09:19:42 09:23:03 23° 94° (E) 09:26:22 145.870
POLYITAN 1 27 Nov 09:20:25 09:23:38 21° 66° (ENE) 09:26:51 437.675
AAUSAT CUBESAT 2 27 Nov 09:21:13 09:25:25 57° 100° (E) 09:29:35 437.432
QB50P2 27 Nov 09:21:46 09:25:02 22° 66° (ENE) 09:28:19 145.880/145.840
DUCHIFAT 1 27 Nov 09:26:40 09:30:05 24° 67° (ENE) 09:33:29 145.980
CANX-2 27 Nov 09:37:29 09:41:41 56° 287° (WNW) 09:45:54 2200.000
COMPASS 1 27 Nov 09:37:31 09:41:48 82° 283° (WNW) 09:46:03 437.405
UWE-3 27 Nov 09:43:07 09:46:42 26° 95° (E) 09:50:21 435.000/436.395/437.385
BRITE-PL 27 Nov 09:43:13 09:47:17 55° 286° (WNW) 09:51:23 437.365/2234.400
DX 1 27 Nov 09:44:49 09:48:59 44° 99° (E) 09:53:07 434.975-435.025
NANOSAT C BR1 27 Nov 09:45:43 09:49:39 38° 70° (ENE) 09:53:35 145.865
CUBEBUG 2 27 Nov 09:45:47 09:49:37 32° 97° (E) 09:53:31 437.445
HO-68 27 Nov 09:46:51 09:54:01 74° 290° (WNW) 10:01:08 435.675
HUMSAT D 27 Nov 09:47:59 09:50:24 15° 91° (E) 09:52:49 437.325/437.525
QB50P1 27 Nov 09:55:38 09:59:44 48° 72° (ENE) 10:03:50 145.935-145.965
DOVE 4 27 Nov 09:56:09 10:00:19 75° 285° (WNW) 10:04:38 437.250
GONETS M04 27 Nov 09:56:30 10:04:05 31° 293° (WNW) 10:11:45
BUGSAT 1 27 Nov 09:58:31 10:02:32 43° 71° (ENE) 10:06:33 437.445
TIGRISAT 27 Nov 10:11:20 10:15:35 79° 257° (WSW) 10:19:52 435.000
CUTE 1.7 + AOD 2 27 Nov 10:12:26 10:16:02 27° 292° (WNW) 10:19:38 437.475
ZACube-1 27 Nov 10:14:31 10:18:38 48° 99° (E) 10:22:49 437.345
POPSAT HIP 1 27 Nov 10:20:28 10:24:44 89° 256° (WSW) 10:29:00 437.405
CINEMA 3 27 Nov 10:21:05 10:25:17 66° 285° (WNW) 10:29:37 145.822/145.860
VELOX 1 27 Nov 10:21:15 10:25:18 34° 97° (E) 10:29:19 145.980
UNISAT 6 27 Nov 10:25:59 10:30:09 53° 260° (W) 10:34:21 437.425
ESTCUBE 1 27 Nov 10:26:10 10:28:57 16° 91° (E) 10:31:44 437.505/2401.250
UKube-1 27 Nov 10:43:53 10:48:01 43° 289° (WNW) 10:52:06 .
SEEDS 27 Nov 10:44:27 10:46:55 15° 297° (WNW) 10:49:24 437.485
GOMX 1 27 Nov 10:46:15 10:49:01 18° 295° (WNW) 10:51:50 467.674
AISAT 27 Nov 10:48:13 10:52:39 70° 102° (ESE) 10:57:02 437.250
FUNcube-1 27 Nov 10:49:06 10:53:19 70° 285° (WNW) 10:57:37 145.935
Oscar 11 27 Nov 10:54:21 10:58:06 29° 292° (WNW) 11:01:50 145.826/435.025
DELFI C3 27 Nov 10:54:44 10:58:22 30° 291° (WNW) 11:01:59 145.870
POLYITAN 1 27 Nov 10:55:27 10:59:23 36° 262° (W) 11:03:19 437.675
ANTELSAT 27 Nov 10:55:42 10:59:17 26° 265° (W) 11:02:52 437.575/2403.000
CUBEBUG 1 27 Nov 10:55:47 10:59:38 30° 96° (E) 11:03:26 437.445
QB50P2 27 Nov 10:56:52 11:00:46 35° 263° (W) 11:04:41 145.880/145.840
AAUSAT CUBESAT 2 27 Nov 10:58:23 11:00:38 14° 297° (WNW) 11:02:52 437.432
50 SAT 27 Nov 11:00:48 11:04:53 81° 103° (ESE) 11:08:59 437.505
DUCHIFAT 1 27 Nov 11:02:02 11:05:49 31° 263° (W) 11:09:37 145.980
SO-50 27 Nov 11:12:00 11:16:21 31° 45° (NE) 11:20:43 436.795
UWE-3 27 Nov 11:19:35 11:23:14 29° 291° (WNW) 11:26:57 435.000/436.395/437.385
DX 1 27 Nov 11:21:54 11:24:55 19° 296° (WNW) 11:27:55 434.975-435.025
HUMSAT D 27 Nov 11:22:27 11:26:29 48° 287° (WNW) 11:30:32 437.325/437.525
NANOSAT C BR1 27 Nov 11:22:35 11:25:40 19° 267° (W) 11:28:46 145.865
CUBEBUG 2 27 Nov 11:22:48 11:26:12 24° 292° (WNW) 11:29:39 437.445
QB50P1 27 Nov 11:33:24 11:35:54 15° 268° (W) 11:38:24 145.935-145.965
BUGSAT 1 27 Nov 11:35:27 11:38:14 17° 267° (W) 11:41:02 437.445
HO-68 27 Nov 11:36:30 11:40:32 16° 309° (NW) 11:44:34 435.675
ZACube-1 27 Nov 11:52:00 11:54:40 17° 296° (WNW) 11:57:22 437.345
VELOX 1 27 Nov 11:58:12 12:01:43 24° 294° (WNW) 12:05:12 145.980
TISAT 1 27 Nov 11:58:38 12:02:32 36° 98° (E) 12:06:24 437.305
ESTCUBE 1 27 Nov 12:01:44 12:06:09 52° 288° (WNW) 12:10:32 437.505/2401.250
Oscar 19 27 Nov 12:04:45 12:09:13 32° 67° (ENE) 12:13:43 437.125/150
SPROUT 27 Nov 12:13:14 12:17:23 47° 99° (E) 12:21:30 437.525
YUBILEINY 27 Nov 12:17:15 12:24:33 29° 66° (ENE) 12:31:46 435.215
AISAT 27 Nov 12:26:42 12:28:43 13° 299° (WNW) 12:30:43 437.250
CUBEBUG 1 27 Nov 12:32:17 12:35:55 26° 293° (WNW) 12:39:30 437.445
BEESAT 27 Nov 12:34:28 12:37:02 14° 90° (E) 12:39:35 436.000
SO-50 27 Nov 12:52:27 12:57:00 40° 244° (WSW) 13:01:33 436.795
ITAMSAT 1 27 Nov 13:00:56 13:05:48 42° 69° (ENE) 13:10:42 435.822/435.867
VERMONT LUNAR 27 Nov 13:10:04 13:11:58 14° 149° (SSE) 13:13:53 437.305
CUSAT 1 27 Nov 13:14:16 13:16:48 43° 283° (WNW) 13:19:20 437.405
AUBIESAT-1 27 Nov 13:24:08 13:28:52 45° 103° (ESE) 13:33:26 437.475
ITUPSAT 1 27 Nov 13:29:34 13:34:15 49° 100° (E) 13:38:53 437.325
M-CUBED/EXP-1 PRIME 27 Nov 13:30:27 13:35:20 57° 105° (ESE) 13:40:04 437.505
TISAT 1 27 Nov 13:35:01 13:38:09 21° 294° (WNW) 13:41:16 437.305
SWISSCUBE 27 Nov 13:39:47 13:44:36 69° 102° (ESE) 13:49:21 437.505
Gurwin Techsat 1B 27 Nov 13:42:19 13:47:30 57° 72° (ENE) 13:52:43 435.225
Oscar 19 27 Nov 13:43:56 13:48:30 33° 264° (W) 13:53:07 437.125/150
RS-15 27 Nov 13:44:15 13:48:10 13° 95° (E) 13:52:03 29.354- 29.394
DANDE 27 Nov 13:48:15 13:50:10 18° 287° (WNW) 13:52:03 436.750
SPROUT 27 Nov 13:50:21 13:53:07 17° 296° (WNW) 13:55:52 437.525
O/OREOS (USA 219) 27 Nov 14:00:58 14:03:07 13° 50° (NE) 14:05:16 437.305
KKS-1 27 Nov 14:10:31 14:14:20 28° 96° (E) 14:18:09 437.445
BEESAT 27 Nov 14:10:33 14:15:19 64° 287° (WNW) 14:20:02 436.000
YUBILEINY 27 Nov 14:13:26 14:22:02 66° 268° (W) 14:30:34 435.215
AO-7 27 Nov 14:16:08 14:23:29 37° 58° (ENE) 14:30:51 29.400- 29.500
HORYU 2 27 Nov 14:27:13 14:31:35 67° 74° (ENE) 14:36:01 437.375
ITAMSAT 1 27 Nov 14:41:09 14:45:26 26° 266° (W) 14:49:44 435.822/435.867
MaSat-1 27 Nov 14:42:12 14:45:04 52° 115° (ESE) 14:47:42 437.345
PHONESAT 2.4 27 Nov 14:42:26 14:45:47 33° 161° (SSE) 14:49:09 2401.200-2431.200
VERMONT LUNAR 27 Nov 14:46:28 14:49:53 40° 165° (SSE) 14:53:18 437.305
AUBIESAT-1 27 Nov 14:59:36 15:03:33 25° 300° (WNW) 15:07:25 437.475
STARS 27 Nov 15:02:20 15:06:44 68° 102° (ESE) 15:11:06 437.465
M-CUBED/EXP-1 PRIME 27 Nov 15:06:20 15:09:56 21° 302° (WNW) 15:13:29 437.505
ITUPSAT 1 27 Nov 15:08:19 15:11:47 20° 297° (WNW) 15:15:13 437.325
SWISSCUBE 27 Nov 15:19:13 15:21:53 15° 300° (WNW) 15:24:33 437.505
Gurwin Techsat 1B 27 Nov 15:24:08 15:27:50 19° 269° (W) 15:31:33 435.225
JAS-2 27 Nov 15:26:42 15:33:24 34° 62° (ENE) 15:40:09 435.910
O/OREOS (USA 219) 27 Nov 15:38:38 15:43:07 79° 249° (WSW) 15:47:35 437.305
KKS-1 27 Nov 15:47:07 15:50:56 29° 292° (WNW) 15:54:45 437.445
RS-15 27 Nov 15:47:21 15:58:06 65° 116° (ESE) 16:08:49 29.354- 29.394
Cubesat XI-IV 27 Nov 15:57:06 15:58:55 12° 56° (NE) 16:00:44 437.490
HORYU 2 27 Nov 16:07:04 16:08:44 12° 270° (W) 16:10:25 437.375
AO-7 27 Nov 16:07:52 16:15:56 56° 258° (WSW) 16:24:06 29.400- 29.500
YUBILEINY 27 Nov 16:14:17 16:16:59 12° 288° (WNW) 16:19:40 435.215
PHONESAT 2.4 27 Nov 16:20:39 16:24:18 58° 178° (S) 16:27:58 2401.200-2431.200
VERMONT LUNAR 27 Nov 16:24:34 16:28:08 58° 182° (S) 16:31:43 437.305
